User: anonymous   Login
Location: Unspecified
(0.0000°N, 0.0000°E)
Time: 03:52:13
(UTC+02:00)
Language:

Cosmos 1782 Rocket - Orbit

View from above orbital plane
View from above orbital plane
View from above satellite
View from above satellite

Ground track
Ground track

The orbit data is extracted from the following two-line orbital elements,

1 16987U 86074B   16180.78260706  .00000082  00000-0  72110-5 0  9994
2 16987  82.5175 281.3652 0017882 349.7732 169.6455 14.82904333606093
Epoch (UTC): 28 June 2016 18:46:57
Eccentricity: 0.0017882
inclination: 82.5175°
perigee height: 607 km
apogee height: 632 km
right ascension of ascending node: 281.3652°
argument of perigee: 349.7732°
revolutions per day: 14.82904333
mean anomaly at epoch: 169.6455°
orbit number at epoch: 60609

The dashed part of the orbit path shows where the satellite is in the earth's shadow,  

DLR